Weather History for KOSC - February, 2013

Change the Weather History Date:

Tuesday, February 19, 2013

  Actual Average Record
Temperature  
Mean Temperature 28 °F -  
Max Temperature 37 °F 29 °F 46 °F (2014)
Min Temperature 17 °F 14 °F -13 °F (2015)
Degree Days  
Heating Degree Days 38    
Moisture  
Dew Point 24 °F    
Average Humidity 79    
Maximum Humidity 94    
Minimum Humidity 61    
Precipitation  
Precipitation 0.17 in - - ()
Sea Level Pressure  
Sea Level Pressure 29.46 in    
Wind  
Wind Speed 16 mph (SW)    
Max Wind Speed 28 mph    
Max Gust Speed 36 mph    
Visibility 9 miles    
Events Rain , Snow    
Averages and records for this station are not official NWS values.
T = Trace of Precipitation, MM = Missing Value Source: NWS Daily Summary

Daily Weather History Graph

Daily Weather History Graph

Search for Another Location

Airport or City:

Trip Planner

Search our weather history database for the weather conditions in past years. The results will help you decide how hot, cold, wet, or windy it might be!

Date:

Astronomy

Feb. 19, 2013 Rise Set
Actual Time 7:26 AM EST 6:08 PM EST
Civil Twilight 6:57 AM EST 6:38 PM EST
Nautical Twilight 6:23 AM EST 7:11 PM EST
Astronomical Twilight 5:49 AM EST 7:45 PM EST
Moon 12:31 PM EST (2/19) 3:05 AM EST (2/19)
Length of Visible Light 11h 40m
Length of Day
10h 41m
Waxing Gibbous, 67% of the Moon is Illuminated
Feb 19
Waxing Gibbous
Feb 25
Full
Mar 4
Last Quarter
Mar 11
New
Mar 19
First Quarter

Hourly Weather History & Observations

Time (EST) Temp. Windchill Dew Point Humidity Pressure Visibility Wind Dir Wind Speed Gust Speed Precip Events Conditions
12:13 AM 35.2 °F 27.6 °F 31.1 °F 85% 29.52 in 10.0 mi SSE 10.4 mph - N/A Rain Light Rain
12:33 AM 35.2 °F 27.6 °F 31.6 °F 87% 29.50 in 10.0 mi SE 10.4 mph - N/A   Drizzle
12:54 AM 35.1 °F 27.9 °F 31.6 °F 87% 29.48 in 10.0 mi SE 9.2 mph - N/A Rain Light Rain
1:13 AM 35.2 °F 27.6 °F 31.6 °F 87% 29.47 in 10.0 mi SSE 10.4 mph - N/A   Overcast
1:33 AM 35.8 °F 28.3 °F 31.6 °F 85% 29.45 in 10.0 mi SSE 10.4 mph - N/A   Overcast
1:54 AM 36.1 °F 27.7 °F 31.6 °F 84% 29.44 in 10.0 mi SSE 12.7 mph 17.3 mph N/A   Overcast
2:13 AM 36.1 °F 28.7 °F 32.0 °F 85% 29.43 in 7.0 mi SSE 10.4 mph - 0.01 in Rain Light Rain
2:33 AM 35.8 °F 28.3 °F 32.4 °F 87% 29.41 in 7.0 mi SSE 10.4 mph - 0.02 in Rain Light Rain
2:54 AM 35.6 °F 28.0 °F 32.5 °F 89% 29.39 in 7.0 mi SSE 10.4 mph 18.4 mph 0.02 in Rain Light Rain
3:13 AM 36.1 °F 28.2 °F 33.6 °F 91% 29.37 in 7.0 mi SSE 11.5 mph 18.4 mph 0.01 in Rain Light Rain
3:34 AM 36.5 °F 28.2 °F 34.3 °F 92% 29.35 in 7.0 mi SSE 12.7 mph 20.7 mph 0.03 in Rain Light Rain
3:53 AM 36.1 °F 26.9 °F 34.0 °F 92% 29.33 in 7.0 mi SSE 15.0 mph 18.4 mph 0.04 in Rain Light Rain
4:13 AM 36.0 °F 26.7 °F 33.8 °F 92% 29.32 in 7.0 mi SSE 15.0 mph 25.3 mph 0.01 in Rain Light Rain
4:34 AM 36.9 °F 27.5 °F 34.7 °F 92% 29.30 in 5.0 mi SSE 16.1 mph 24.2 mph 0.04 in Rain Rain
4:53 AM 36.9 °F 27.8 °F 34.9 °F 93% 29.29 in 5.0 mi SSE 15.0 mph 21.9 mph 0.06 in Rain Light Rain
5:13 AM 36.7 °F 28.9 °F 35.1 °F 94% 29.28 in 5.0 mi South 11.5 mph 18.4 mph 0.02 in Rain Rain
5:34 AM 37.4 °F 27.8 °F 35.6 °F 93% 29.27 in 5.0 mi SSE 17.3 mph 27.6 mph 0.03 in Rain Rain
5:53 AM 36.9 °F 27.5 °F 35.2 °F 94% 29.27 in 4.0 mi South 16.1 mph 20.7 mph 0.05 in Rain Light Rain
6:13 AM 37.4 °F 28.2 °F 35.6 °F 93% 29.25 in 7.0 mi South 16.1 mph 24.2 mph N/A Rain Rain
6:34 AM 37.4 °F 28.2 °F 35.8 °F 94% 29.25 in 10.0 mi SSW 16.1 mph 23.0 mph N/A   Overcast
6:53 AM 37.4 °F 26.6 °F 35.1 °F 91% 29.26 in 10.0 mi WSW 21.9 mph 29.9 mph N/A   Overcast
7:13 AM 36.1 °F 23.7 °F 32.5 °F 87% 29.28 in 10.0 mi WSW 27.6 mph 34.5 mph N/A   Overcast
7:34 AM 34.9 °F 23.9 °F 32.0 °F 89% 29.30 in 10.0 mi SW 19.6 mph 28.8 mph N/A   Overcast
7:53 AM 34.7 °F 22.5 °F 31.6 °F 89% 29.31 in 10.0 mi WSW 24.2 mph 27.6 mph N/A   Overcast
8:13 AM 34.5 °F 22.8 °F 31.1 °F 87% 29.32 in 10.0 mi SW 21.9 mph 28.8 mph N/A   Overcast
8:34 AM 34.7 °F 24.7 °F 31.1 °F 87% 29.32 in 10.0 mi SW 16.1 mph - N/A   Overcast
8:53 AM 34.5 °F 23.4 °F 30.7 °F 86% 29.33 in 10.0 mi SW 19.6 mph 26.5 mph N/A   Overcast
9:13 AM 34.2 °F 23.6 °F 30.2 °F 85% 29.34 in 10.0 mi SW 17.3 mph 24.2 mph N/A   Overcast
9:34 AM 34.0 °F 23.8 °F 30.0 °F 85% 29.35 in 10.0 mi SW 16.1 mph 23.0 mph N/A   Overcast
9:53 AM 33.8 °F 22.2 °F 29.3 °F 84% 29.35 in 10.0 mi SW 20.7 mph 31.1 mph N/A   Overcast
10:13 AM 33.4 °F 21.4 °F 28.9 °F 84% 29.36 in 10.0 mi SW 21.9 mph 29.9 mph N/A   Overcast
10:34 AM 32.9 °F 20.1 °F 28.4 °F 84% 29.37 in 10.0 mi SW 24.2 mph 34.5 mph N/A   Overcast
10:53 AM 32.7 °F 19.9 °F 28.4 °F 84% 29.37 in 10.0 mi SW 24.2 mph 32.2 mph N/A   Overcast
11:13 AM 32.0 °F 19.2 °F 27.7 °F 84% 29.38 in 10.0 mi SW 23.0 mph 31.1 mph N/A   Overcast
11:34 AM 32.0 °F 19.2 °F 27.1 °F 82% 29.38 in 10.0 mi SW 23.0 mph 34.5 mph N/A   Overcast
11:53 AM 32.0 °F 19.8 °F 27.1 °F 82% 29.39 in 10.0 mi SW 20.7 mph 27.6 mph N/A Snow Light Snow
12:14 PM 32.0 °F 18.6 °F 25.7 °F 78% 29.40 in 10.0 mi SW 25.3 mph 29.9 mph N/A   Overcast
12:33 PM 32.0 °F 20.1 °F 25.3 °F 76% 29.40 in 10.0 mi SW 19.6 mph 29.9 mph N/A   Overcast
12:53 PM 32.0 °F 19.2 °F 25.0 °F 75% 29.40 in 10.0 mi WSW 23.0 mph 29.9 mph N/A   Overcast
1:14 PM 31.8 °F 18.4 °F 25.0 °F 76% 29.41 in 10.0 mi SW 25.3 mph 32.2 mph N/A   Overcast
1:33 PM 31.6 °F 19.0 °F 25.0 °F 76% 29.41 in 10.0 mi SW 21.9 mph 27.6 mph N/A   Overcast
1:53 PM 31.5 °F 18.5 °F 25.0 °F 77% 29.42 in 7.0 mi West 23.0 mph 26.5 mph N/A   Overcast
2:14 PM 32.0 °F 19.8 °F 21.0 °F 64% 29.43 in 10.0 mi West 20.7 mph 26.5 mph N/A   Overcast
2:33 PM 30.9 °F 17.8 °F 21.2 °F 67% 29.43 in 10.0 mi West 23.0 mph 29.9 mph N/A   Overcast
2:53 PM 30.0 °F 16.6 °F 20.3 °F 67% 29.45 in 10.0 mi West 23.0 mph 29.9 mph N/A   Overcast
3:14 PM 29.3 °F 15.6 °F 19.9 °F 68% 29.46 in 10.0 mi West 23.0 mph 33.4 mph N/A   Overcast
3:33 PM 29.1 °F 16.0 °F 19.0 °F 66% 29.47 in 10.0 mi West 20.7 mph 31.1 mph N/A   Overcast
3:53 PM 28.4 °F 14.1 °F 19.8 °F 70% 29.49 in 7.0 mi West 24.2 mph 32.2 mph N/A Snow Light Snow
4:14 PM 26.6 °F 11.7 °F 19.4 °F 74% 29.51 in 3.0 mi West 24.2 mph 32.2 mph N/A Snow Light Snow
4:33 PM 26.4 °F 11.2 °F 17.8 °F 70% 29.53 in 10.0 mi West 25.3 mph 35.7 mph N/A   Overcast
4:53 PM 25.0 °F 11.3 °F 20.1 °F 82% 29.55 in 2.0 mi West 18.4 mph 28.8 mph N/A Snow Light Snow
5:13 PM 24.4 °F 9.9 °F 19.8 °F 82% 29.56 in 1.8 mi WSW 20.7 mph 28.8 mph N/A Snow Light Snow
5:33 PM 24.1 °F 8.7 °F 18.3 °F 79% 29.57 in 4.0 mi West 23.0 mph 31.1 mph N/A Snow Light Snow
5:54 PM 23.7 °F 7.5 °F 16.7 °F 75% 29.58 in 4.0 mi West 25.3 mph 34.5 mph N/A Snow Light Snow
6:13 PM 23.7 °F 8.2 °F 15.4 °F 71% 29.60 in 10.0 mi West 23.0 mph 28.8 mph N/A Snow Light Snow
7:13 PM 22.3 °F 6.6 °F 13.5 °F 69% 29.65 in 7.0 mi West 21.9 mph 31.1 mph N/A Snow Light Snow
7:33 PM 21.9 °F 6.5 °F 13.6 °F 70% 29.66 in 7.0 mi West 20.7 mph 27.6 mph N/A Snow Light Snow
7:54 PM 21.6 °F 5.3 °F 12.7 °F 69% 29.67 in 10.0 mi West 23.0 mph 28.8 mph N/A Snow Light Snow
8:13 PM 21.2 °F 6.4 °F 12.9 °F 70% 29.68 in 10.0 mi West 18.4 mph 27.6 mph N/A Snow Light Snow
8:33 PM 20.7 °F 5.7 °F 12.9 °F 72% 29.68 in 10.0 mi West 18.4 mph 26.5 mph N/A Snow Light Snow
8:54 PM 20.3 °F 4.4 °F 10.8 °F 67% 29.69 in 10.0 mi West 20.7 mph 33.4 mph N/A   Overcast
9:13 PM 20.1 °F 4.6 °F 10.0 °F 65% 29.70 in 10.0 mi West 19.6 mph 28.8 mph N/A   Overcast
9:33 PM 19.8 °F 3.3 °F 9.5 °F 64% 29.70 in 10.0 mi West 21.9 mph 33.4 mph N/A   Overcast
9:54 PM 19.4 °F 2.5 °F 9.5 °F 65% 29.71 in 10.0 mi West 23.0 mph 28.8 mph N/A   Mostly Cloudy
10:13 PM 19.0 °F 3.6 °F 8.8 °F 64% 29.72 in 10.0 mi West 18.4 mph 31.1 mph N/A   Mostly Cloudy
10:33 PM 18.5 °F 2.9 °F 7.9 °F 63% 29.73 in 10.0 mi West 18.4 mph 28.8 mph N/A   Overcast
10:54 PM 18.5 °F 0.6 °F 7.2 °F 61% 29.73 in 10.0 mi West 25.3 mph 32.2 mph N/A   Mostly Cloudy
11:13 PM 18.3 °F 1.8 °F 6.8 °F 61% 29.74 in 10.0 mi West 20.7 mph 32.2 mph N/A   Mostly Cloudy
11:33 PM 18.1 °F 1.6 °F 7.7 °F 64% 29.74 in 10.0 mi West 20.7 mph 27.6 mph N/A   Mostly Cloudy
11:54 PM 17.8 °F 0.3 °F 7.5 °F 64% 29.75 in 10.0 mi West 23.0 mph 32.2 mph N/A   Mostly Cloudy